Dewpoint
50 49 50 51 50 51 51 52 52 52 52 52 52 52 51 52 52 44 31 27 44 54 55 34 31 43 48 47 41 34 26 21 18 21 18 29 28 33 33 35 34 34 36 38 47
49 50 50 51 51 51 51 51 51 52 52 52 52 51 51 51 45 39 41 49 49 52 41 32 17 40 43 40 44 33 29 25 23 21 23 19 27 29 30 32 32 34 36 38 37
50 50 50 50 51 51 51 51 51 51 52 51 51 51 51 49 34 10 54 48 50 44 40 38 36 33 37 32 41 40 32 29 25 22 25 23 25 27 30 30 32 32 34 35 36
50 50 50 50 51 51 51 52 52 52 52 51 51 51 50 42 -5 32 47 48 47 34 42 44 37 24 25 33 34 33 37 36 31 26 25 22 21 23 24 28 33 36 41 39 39
49 49 50 50 51 51 51 52 53 52 52 51 51 51 44 34 27 29 46 44 37 33 25 38 32 26 20 22 30 35 31 36 37 37 32 33 33 32 35 37 41 43 43 43 42
49 50 50 50 50 51 52 53 53 53 53 51 51 50 41 24 31 37 39 40 36 33 30 30 37 28 30 25 25 26 31 33 35 41 42 40 39 40 39 40 40 40 40 39 39
49 50 50 50 50 51 52 53 53 53 54 51 51 47 41 30 37 39 41 39 38 35 31 29 23 35 29 24 25 24 25 26 32 35 37 40 37 37 39 40 39 39 39 39 39
49 49 50 50 50 51 52 53 53 54 53 52 51 45 37 40 42 42 41 37 38 38 35 33 27 24 34 31 24 23 23 20 24 26 29 33 29 30 31 32 34 35 37 38 39
49 50 49 50 50 51 52 52 53 52 53 51 46 43 27 40 32 30 40 32 30 32 36 30 28 20 25 27 23 22 18 19 20 24 25 27 27 29 30 31 34 36 37 37 37
49 50 49 50 50 51 52 52 52 53 51 48 46 36 31 24 27 29 31 36 30 28 26 25 24 20 20 24 18 17 19 19 19 22 24 24 27 28 30 32 33 35 35 36 36
49 49 49 49 50 51 49 37 34 32 35 31 30 30 28 29 29 28 30 28 27 25 22 21 17 14 16 23 24 21 21 20 22 24 23 24 25 26 28 29 30 31 33 34 36
49 49 49 49 50 50 44 36 37 38 33 33 32 31 31 30 27 24 28 24 23 20 22 20 15 16 18 18 21 22 21 21 22 24 25 26 26 27 28 29 30 31 32 33 34
48 48 48 49 50 44 41 37 39 36 32 31 29 26 26 28 24 22 26 25 22 19 19 19 17 16 18 17 18 20 21 21 21 23 24 24 24 26 27 28 29 29 31 32 34
48 48 48 48 43 43 38 41 42 37 28 19 23 25 26 28 25 22 27 26 23 19 17 17 18 16 15 14 17 18 19 21 22 22 20 23 17 23 25 26 28 28 30 31 32
48 48 48 47 45 39 39 42 39 33 9 19 23 27 26 25 24 19 26 27 25 24 25 21 17 13 13 12 14 17 19 18 18 18 20 20 19 20 21 21 23 27 28 30 31
49 49 48 46 46 43 43 40 34 21 9 20 25 24 24 23 20 22 24 25 28 27 28 26 25 21 17 14 13 13 16 18 19 18 15 18 18 16 15 19 20 22 22 25 27
50 49 46 43 36 43 40 33 23 14 22 21 23 24 24 23 20 22 22 22 27 28 26 26 26 25 23 15 15 14 15 11 12 14 14 15 16 18 20 21 21 23 24 27 31
49 45 48 46 46 45 32 22 16 21 22 25 25 24 23 21 21 22 22 20 28 32 33 29 24 21 23 19 13 14 15 10 4 6 9 14 15 15 22 22 26 24 28 31 33
46 44 43 43 45 40 30 25 20 24 26 26 26 24 22 21 24 23 22 23 26 31 28 29 21 26 28 26 18 14 13 15 13 14 8 10 14 16 18 19 21 23 30 36 39
43 42 40 41 42 37 30 26 25 27 28 28 26 27 23 23 24 23 23 24 24 27 31 28 26 25 28 27 26 23 17 12 11 6 5 9 11 10 18 16 23 28 35 41 52
42 37 40 40 40 34 32 27 28 29 30 29 29 27 28 28 24 24 22 21 27 26 28 29 27 21 23 24 29 25 24 17 15 12 9 9 12 24 24 25 26 26 36 48 54
41 32 40 38 31 34 30 30 33 30 32 32 33 31 29 29 27 25 25 25 27 29 26 31 31 24 19 22 25 24 22 24 18 12 11 11 12 23 28 26 29 26 29 43 56
37 37 41 36 33 31 30 30 30 31 31 31 32 32 32 31 31 30 28 27 28 28 28 32 28 20 15 25 27 23 23 26 28 25 19 12 11 23 23 23 29 28 26 34 55
37 32 33 35 33 30 28 28 25 31 32 34 33 34 34 31 33 32 29 29 29 30 35 35 29 23 20 19 25 23 24 25 26 23 19 17 18 19 22 26 29 28 32 36 54
35 32 36 28 27 27 30 30 28 28 35 33 33 33 36 32 30 30 29 29 31 33 34 33 28 26 27 27 26 25 24 24 23 23 23 21 20 22 27 31 28 31 32 32 49
32 32 34 31 31 32 30 28 28 30 30 28 31 32 34 32 32 31 30 33 35 37 36 37 31 29 25 24 23 21 21 22 23 24 24 25 24 28 31 31 28 28 27 32 45
38 37 36 31 31 30 29 27 27 29 29 34 33 34 32 32 34 35 36 36 36 36 35 35 33 29 22 21 22 20 20 22 21 23 24 21 23 25 29 30 31 36 40 40 46
Lifted_Index
13 13 12 12 12 12 12 12 12 12 12 12 12 13 13 13 13 13 12 12 12 11 10 9 8 6 5 4 4 5 5 4 4 4 4 4 4 4 3 2 2 2 3 3 3
13 12 12 12 12 12 12 12 12 12 12 12 12 13 13 13 13 12 12 12 12 11 11 9 8 6 5 4 4 4 4 4 4 4 4 4 4 4 3 2 2 2 2 3 3
13 12 12 12 12 12 12 12 12 12 12 12 13 13 13 13 12 11 11 11 12 12 11 10 8 7 6 5 4 4 4 4 4 4 4 4 4 4 3 2 2 2 2 3 3
13 12 12 12 12 12 12 12 12 12 12 12 12 13 13 12 11 11 11 11 12 13 11 10 9 7 6 5 5 4 4 4 4 4 3 3 4 4 4 3 2 2 2 2 2
12 12 12 12 12 12 11 11 11 11 11 11 12 12 13 12 12 12 12 12 13 13 11 10 9 8 7 6 5 5 4 4 4 3 3 2 3 4 4 3 3 2 2 3 3
12 12 12 12 12 11 11 11 10 10 10 11 11 12 12 12 12 13 12 12 12 12 12 11 10 9 8 7 7 6 5 5 4 3 2 2 2 3 4 3 3 3 3 3 3
12 12 12 12 12 11 11 11 10 10 10 10 11 12 12 12 12 12 12 12 12 12 12 12 11 10 9 9 8 7 6 5 5 4 3 2 3 3 4 4 3 3 3 3 3
12 12 12 12 12 11 11 11 10 10 9 10 11 11 12 12 12 12 12 12 12 12 12 13 12 11 10 9 8 7 6 5 5 5 4 3 3 4 4 4 3 3 3 3 4
12 12 12 12 12 11 11 11 10 10 10 10 11 11 12 12 12 12 12 12 12 12 12 12 12 11 10 8 7 6 5 4 5 6 5 4 4 4 4 4 3 3 4 4 4
12 12 12 12 11 11 11 11 11 10 10 11 11 12 12 12 12 12 12 12 12 12 12 12 12 11 10 8 6 5 5 5 6 6 6 5 5 5 4 4 4 4 5 5 5
13 12 12 12 12 11 11 11 11 11 11 11 11 12 12 12 12 12 12 12 12 12 11 12 11 10 10 9 8 7 7 7 7 7 6 6 6 6 5 5 5 6 6 6 5
13 13 13 12 12 12 12 12 11 11 11 11 11 11 11 12 12 12 11 11 10 10 9 9 10 10 10 10 9 9 8 8 7 7 6 6 6 6 6 6 6 6 6 6 6
13 13 13 13 12 12 12 11 11 11 11 11 10 10 10 11 11 10 10 8 7 6 5 6 7 8 8 9 9 8 8 8 8 7 6 6 5 6 7 7 7 7 7 6 6
13 13 13 12 12 11 11 11 11 10 9 9 9 9 9 9 9 8 7 5 4 3 2 3 3 4 5 6 6 6 7 7 7 7 6 6 5 5 6 7 7 7 7 6 6
13 13 12 12 11 11 10 10 10 8 7 7 8 8 8 8 7 6 4 3 2 1 1 2 2 2 2 2 3 4 5 6 6 6 6 6 5 4 5 5 5 6 6 6 6
12 12 12 11 10 10 10 9 9 7 5 6 7 7 7 6 5 4 3 2 1 1 1 1 1 1 1 1 1 2 3 4 4 5 5 6 5 4 4 5 5 6 6 6 6
12 11 11 10 9 9 9 9 7 6 6 6 6 6 5 5 4 3 2 1 0 -0 0 1 1 1 0 0 0 1 1 1 2 2 4 6 5 3 4 6 7 7 7 7 7
11 10 9 9 9 9 9 8 6 6 6 6 6 5 4 3 2 2 1 1 -0 -0 0 0 0 0 0 0 0 0 0 0 1 1 3 5 5 5 6 7 7 7 7 7 7
11 9 8 8 8 8 8 7 7 6 6 5 5 4 3 2 1 1 1 0 -0 -0 0 0 0 0 -0 -0 -0 0 0 0 1 1 3 4 5 6 7 7 7 7 6 6 5
10 9 8 8 8 8 8 7 7 7 6 5 4 3 2 1 1 1 0 0 -0 -0 -0 0 0 0 -0 -0 -0 -0 0 0 1 1 2 3 4 5 7 7 7 7 5 4 2
9 8 8 8 8 8 8 8 7 6 5 4 4 3 2 1 1 0 0 0 -0 -0 -0 -0 0 0 0 0 0 0 0 0 0 1 2 3 4 6 7 7 7 7 5 3 1
8 8 8 8 8 8 8 8 7 6 5 4 3 2 1 1 1 1 1 0 0 -0 -0 -0 -0 0 0 0 1 1 1 0 0 2 3 4 5 6 7 7 7 6 5 3 1
8 8 8 9 9 9 8 8 7 6 4 4 3 2 2 1 1 1 1 1 0 0 -0 -0 -0 0 0 0 1 1 1 0 1 2 4 5 5 6 7 7 7 6 5 3 1
8 8 9 9 9 9 9 8 7 5 4 3 3 2 2 2 2 1 1 1 1 0 0 0 0 0 0 1 1 1 1 1 1 2 3 5 5 6 7 7 7 7 6 4 2
9 9 9 8 8 8 9 8 7 5 4 3 3 3 3 3 2 2 2 1 1 1 0 0 0 1 1 1 1 1 1 1 2 2 4 5 5 6 7 8 8 8 7 5 3
9 9 9 8 7 7 8 8 7 6 4 4 3 3 3 3 3 2 2 2 2 1 1 1 1 1 1 1 1 2 2 2 2 3 4 6 6 7 7 8 8 7 7 5 3
9 9 9 8 7 6 7 8 7 6 5 4 3 3 3 3 3 3 2 2 2 2 1 1 1 1 1 1 1 1 1 2 2 3 5 6 7 7 7 7 7 7 6 5 3